| time (UTC) | temp C | wind direction | speed KPH | gust KPH | rain 1hr cm | rain 24hr cm | rain mn cm | humidity % | barometer mb |
| 20260503234034 | 13 | 23 | 0.0 | 3.2 | 0.00 | 0.30 | 0.00 | 98 | 1016.6 |
| 20260503233031 | 13 | 344 | 4.8 | 6.4 | 0.00 | 0.30 | 0.00 | 98 | 1016.5 |
| 20260503232031 | 13 | 342 | 1.6 | 3.2 | 0.00 | 0.30 | 0.00 | 98 | 1016.6 |
| 20260503231031 | 13 | 343 | 1.6 | 1.6 | 0.00 | 0.30 | 0.00 | 98 | 1016.4 |
| 20260503230032 | 14 | 347 | 0.0 | 3.2 | 0.00 | 0.30 | 0.00 | 98 | 1016.5 |
| 20260503225031 | 14 | 354 | 1.6 | 3.2 | 0.00 | 0.30 | 0.30 | 98 | 1016.5 |
| 20260503224031 | 13 | 337 | 1.6 | 3.2 | 0.00 | 0.30 | 0.30 | 98 | 1016.4 |
| 20260503223036 | 13 | 3 | 1.6 | 4.8 | 0.00 | 0.30 | 0.30 | 98 | 1016.3 |
| 20260503222035 | 15 | 28 | 0.0 | 1.6 | 0.00 | 0.30 | 0.30 | 98 | 1016.4 |
| 20260503221031 | 15 | 81 | 0.0 | 0.0 | 0.00 | 0.30 | 0.30 | 98 | 1016.6 |
| 20260503220031 | 15 | 115 | 0.0 | 1.6 | 0.00 | 0.30 | 0.30 | 98 | 1016.6 |
| 20260503215032 | 15 | 125 | 0.0 | 3.2 | 0.00 | 0.30 | 0.30 | 98 | 1016.5 |
| 20260503214033 | 15 | 138 | 0.0 | 1.6 | 0.03 | 0.30 | 0.30 | 98 | 1016.3 |
| 20260503213032 | 15 | 84 | 0.0 | 0.0 | 0.03 | 0.30 | 0.30 | 98 | 1016.2 |
| 20260503212031 | 15 | 87 | 0.0 | 4.8 | 0.03 | 0.30 | 0.30 | 98 | 1016.2 |
| 20260503211033 | 15 | 79 | 1.6 | 3.2 | 0.03 | 0.30 | 0.30 | 98 | 1015.9 |
| 20260503210034 | 15 | 146 | 1.6 | 4.8 | 0.03 | 0.30 | 0.30 | 98 | 1015.8 |
| 20260503205033 | 15 | 126 | 0.0 | 3.2 | 0.05 | 0.30 | 0.30 | 98 | 1015.9 |
| 20260503204506 | 15 | 78 | 0.0 | 1.6 | 0.03 | 0.28 | 0.28 | 98 | 1015.6 |
| 20260503203031 | 15 | 128 | 1.6 | 1.6 | 0.03 | 0.28 | 0.28 | 98 | 1015.8 |
| 20260503202031 | 15 | 109 | 0.0 | 1.6 | 0.03 | 0.28 | 0.28 | 98 | 1015.7 |
| 20260503201032 | 15 | 101 | 0.0 | 0.0 | 0.05 | 0.28 | 0.28 | 98 | 1015.6 |
| 20260503200012 | 15 | 120 | 0.0 | 1.6 | 0.05 | 0.28 | 0.28 | 98 | 1015.5 |
| 20260503194943 | 15 | 124 | 0.0 | 1.6 | 0.03 | 0.25 | 0.25 | 98 | 1015.5 |
| 20260503194422 | 15 | 104 | 0.0 | 1.6 | 0.03 | 0.25 | 0.25 | 98 | 1015.5 |
| 20260503192943 | 15 | 87 | 1.6 | 3.2 | 0.03 | 0.25 | 0.25 | 98 | 1015.3 |
| 20260503191942 | 15 | 129 | 0.0 | 3.2 | 0.03 | 0.25 | 0.25 | 98 | 1015.2 |
| 20260503190943 | 15 | 101 | 0.0 | 1.6 | 0.03 | 0.23 | 0.23 | 97 | 1015.4 |
| 20260503190415 | 15 | 80 | 0.0 | 3.2 | 0.03 | 0.23 | 0.23 | 98 | 1015.2 |
| 20260503184942 | 15 | 111 | 0.0 | 1.6 | 0.03 | 0.23 | 0.23 | 97 | 1014.8 |
| 20260503184416 | 15 | 123 | 0.0 | 3.2 | 0.03 | 0.23 | 0.23 | 97 | 1015.3 |
| 20260503182930 | 15 | 111 | 0.0 | 3.2 | 0.03 | 0.23 | 0.23 | 97 | 1015.3 |
| 20260503181930 | 15 | 104 | 0.0 | 3.2 | 0.03 | 0.23 | 0.23 | 97 | 1015.1 |
| 20260503180930 | 15 | 147 | 3.2 | 4.8 | 0.00 | 0.20 | 0.20 | 97 | 1015.1 |
| 20260503175931 | 15 | 139 | 1.6 | 6.4 | 0.03 | 0.20 | 0.20 | 97 | 1015.4 |
| 20260503174930 | 15 | 141 | 1.6 | 6.4 | 0.03 | 0.20 | 0.20 | 97 | 1015.2 |
| 20260503173930 | 15 | 134 | 1.6 | 9.7 | 0.03 | 0.20 | 0.20 | 97 | 1015.5 |
| 20260503172930 | 15 | 59 | 4.8 | 6.4 | 0.03 | 0.20 | 0.20 | 97 | 1015.2 |
| 20260503172843 | 15 | 131 | 3.2 | 4.8 | 0.03 | 0.20 | 0.20 | 97 | 1015.4 |
| 20260503170930 | 15 | 69 | 1.6 | 4.8 | 0.03 | 0.20 | 0.20 | 97 | 1015.4 |
| 20260503130930 | 16 | 81 | 1.6 | 6.4 | 0.00 | 0.03 | 0.03 | 95 | 1016.6 |
| 20260503080930 | 14 | 75 | 1.6 | 3.2 | 0.00 | 0.00 | 0.00 | 86 | 1016.6 |
| 20260503072929 | 14 | 32 | 0.0 | 1.6 | 0.00 | 0.00 | 0.00 | 87 | 1016.5 |
| 20260503071930 | 14 | 5 | 1.6 | 1.6 | 0.00 | 0.00 | 0.00 | 85 | 1016.5 |
| 20260503071408 | 13 | 6 | 0.0 | 1.6 | 0.00 | 0.00 | 0.00 | 85 | 1016.4 |
| 20260503054930 | 13 | 344 | 0.0 | 3.2 | 0.00 | 0.00 | 0.00 | 85 | 1015.9 |
| 20260503053930 | 13 | 348 | 3.2 | 4.8 | 0.00 | 0.00 | 0.00 | 85 | 1016.0 |
| 20260503052930 | 13 | 8 | 0.0 | 1.6 | 0.00 | 0.00 | 0.00 | 85 | 1016.0 |
| 20260503051931 | 13 | 8 | 0.0 | 0.0 | 0.00 | 0.00 | 0.00 | 84 | 1015.8 |
| 20260503051850 | 13 | 8 | 0.0 | 1.6 | 0.00 | 0.00 | 0.00 | 83 | 1015.8 |
| 20260503045930 | 13 | 8 | 0.0 | 0.0 | 0.00 | 0.00 | 0.00 | 82 | 1015.9 |
| 20260503044930 | 13 | 8 | 0.0 | 3.2 | 0.00 | 0.00 | 0.00 | 81 | 1015.9 |
| 20260503043930 | 13 | 332 | 1.6 | 4.8 | 0.00 | 0.00 | 0.00 | 81 | 1016.1 |
| 20260503042931 | 13 | 355 | 0.0 | 1.6 | 0.00 | 0.00 | 0.00 | 82 | 1016.1 |
| 20260503041930 | 13 | 359 | 1.6 | 4.8 | 0.00 | 0.00 | 0.00 | 81 | 1016.2 |
| 20260503041421 | 13 | 337 | 3.2 | 3.2 | 0.00 | 0.00 | 0.00 | 82 | 1016.3 |
| 20260503035930 | 13 | 351 | 1.6 | 4.8 | 0.00 | 0.00 | 0.00 | 81 | 1016.2 |
| 20260503034931 | 13 | 342 | 1.6 | 4.8 | 0.00 | 0.00 | 0.00 | 81 | 1016.3 |
| 20260503033930 | 13 | 349 | 4.8 | 6.4 | 0.00 | 0.00 | 0.00 | 82 | 1016.2 |
| 20260503032930 | 13 | 355 | 3.2 | 4.8 | 0.00 | 0.00 | 0.00 | 81 | 1016.3 |
| 20260503031930 | 13 | 343 | 1.6 | 4.8 | 0.00 | 0.00 | 0.00 | 81 | 1016.2 |
| 20260503030930 | 13 | 353 | 1.6 | 4.8 | 0.00 | 0.00 | 0.00 | 81 | 1016.5 |
| 20260503025932 | 13 | 345 | 4.8 | 4.8 | 0.00 | 0.00 | 0.00 | 79 | 1016.5 |
| 20260503024931 | 14 | 4 | 3.2 | 6.4 | 0.00 | 0.00 | 0.00 | 77 | 1016.5 |
| 20260503023931 | 13 | 328 | 4.8 | 6.4 | 0.00 | 0.00 | 0.00 | 80 | 1016.7 |
| 20260503022931 | 13 | 343 | 3.2 | 4.8 | 0.00 | 0.00 | 0.00 | 83 | 1016.9 |
| 20260503022422 | 13 | 9 | 1.6 | 4.8 | 0.00 | 0.00 | 0.00 | 85 | 1016.9 |
| 20260503020931 | 13 | 348 | 3.2 | 4.8 | 0.00 | 0.00 | 0.00 | 86 | 1016.8 |
| 20260503015938 | 13 | 16 | 3.2 | 4.8 | 0.00 | 0.00 | 0.00 | 86 | 1017.0 |
| 20260503015412 | 13 | 345 | 1.6 | 4.8 | 0.00 | 0.00 | 0.00 | 86 | 1017.4 |
| 20260503013931 | 13 | 336 | 3.2 | 4.8 | 0.00 | 0.00 | 0.00 | 86 | 1017.4 |
| 20260503012931 | 13 | 337 | 3.2 | 4.8 | 0.00 | 0.00 | 0.00 | 86 | 1017.6 |
| 20260503011930 | 13 | 297 | 1.6 | 4.8 | 0.00 | 0.00 | 0.00 | 85 | 1017.6 |
| 20260503010930 | 13 | 336 | 1.6 | 3.2 | 0.00 | 0.00 | 0.00 | 86 | 1017.8 |
| 20260503005929 | 13 | 339 | 1.6 | 3.2 | 0.00 | 0.00 | 0.00 | 87 | 1017.9 |
| 20260503004930 | 13 | 339 | 1.6 | 1.6 | 0.00 | 0.00 | 0.00 | 87 | 1018.1 |
| 20260503003930 | 13 | 339 | 1.6 | 4.8 | 0.00 | 0.00 | 0.00 | 88 | 1017.9 |
| 20260503002931 | 13 | 344 | 1.6 | 3.2 | 0.00 | 0.00 | 0.00 | 87 | 1018.2 |
| 20260503002420 | 13 | 348 | 1.6 | 3.2 | 0.00 | 0.00 | 0.00 | 87 | 1018.5 |
| 20260503001848 | 13 | 352 | 0.0 | 3.2 | 0.00 | 0.00 | 0.00 | 86 | 1018.4 |
| 20260502235930 | 13 | 341 | 1.6 | 3.2 | 0.00 | 0.00 | 0.00 | 87 | 1018.4 |
| 20260502234930 | 13 | 4 | 3.2 | 4.8 | 0.00 | 0.00 | 0.00 | 86 | 1018.7 |